Location: Ammerl�gen
(47.2167°N, 9.6000°E)
Time: 07:00:13
(UTC+00:00)

Iridium 4 Rocket - Pass Details

Date: 31 July 2021
Orbit: 584 x 904 km, 86.9° (Epoch: 18 September)

Event Time Altitude Azimuth Distance (km) Brightness Sun altitude
Rises 23:21:14 0° 13° (NNE) 3,422 8.1 -24.8°
Reaches altitude 10° 23:25:00 10° 38° (NE) 2,532 6.8 -24.8°
Maximum altitude 23:27:51 14° 68° (ENE) 2,293 6.2 -24.8°
Drops below altitude 10° 23:30:44 10° 98° (E) 2,574 6.1 -24.8°
Enters shadow 23:31:47 - 106° (ESE) 2,784 6.2 -24.8°
